Regional Weather Roundup
Issued by NWS

Home | Current Version | Previous Version | Text Only | Print | Product List | Glossary Off
Versions: 1 2 3 4 5 6 7 8 9 10 11 12 13 14 15 16 17 18 19 20 21 22 23 24 25 26 27 28 29 30 31 32 33 34 35 36 37 38 39 40 41 42 43 44 45 46 47 48 49 50

000
ASUS43 KOAX 231710
RWRNE

WEATHER ROUNDUP FOR NEBRASKA
NATIONAL WEATHER SERVICE OMAHA NE
1100 AM CST TUE JAN 23 2018

NOTES: SATELLITE DATA IS BEING USED TO AUGMENT CLOUD COVER ABOVE
       12000 FEET.
       "FAIR" INDICATES FEW OR NO CLOUDS BELOW 12,000 FEET WITH NO
       SIGNIFICANT WEATHER AND/OR OBSTRUCTIONS TO VISIBILITY.


NEZ001>004-019>022-054>056-231800-
NEBRASKA PANHANDLE

CITY           SKY/WX    TMP DP  RH WIND       PRES   REMARKS
SCOTTSBLUFF    SUNNY     26  17  68 W14       30.24R WCI  14
ALLIANCE       SUNNY     26  18  71 W17       30.19R WCI  13
CHADRON        MOSUNNY   26  17  68 W7        30.22R WCI  18
GORDON         FAIR      30  21  69 W10G18    30.16S WCI  21
KIMBALL        SUNNY     30  18  62 NW21G29   30.21R WCI  17
SIDNEY         SUNNY     31  20  63 NW15      30.22R WCI  20
$$

NEZ057>060-069>072-079>082-231800-
SOUTHWEST NEBRASKA

CITY           SKY/WX    TMP DP  RH WIND       PRES   REMARKS
NORTH PLATTE   CLOUDY    28  20  71 NW9       30.21R WCI  19
IMPERIAL       SUNNY     30  21  69 NW12      30.23R WCI  20
LEXINGTON      PTSUNNY   27  20  75 W12       30.20R WCI  16
MCCOOK         PTSUNNY   29  20  69 W13       30.24R WCI  19
OGALLALA       SUNNY     32  22  68 NW7       30.22R WCI  25
$$

NEZ005>010-023>029-035>040-094-231800-
NORTH CENTRAL NEBRASKA

CITY           SKY/WX    TMP DP  RH WIND       PRES   REMARKS
VALENTINE      PTSUNNY   35  25  66 W10       30.15R WCI  27
AINSWORTH      CLOUDY    33  28  81 W6        30.15R WCI  27
BROKEN BOW     CLOUDY    32  23  69 NW16      30.16R WCI  21
O`NEILL        PTSUNNY   22  19  89 W3        30.14R
ORD            CLOUDY    20  15  81 CALM      30.16R
THEDFORD       CLOUDY    34  28  80 W10       30.18R WCI  26
$$

NEZ041-046>049-061>064-073>077-083>087-231800-
SOUTH CENTRAL NEBRASKA

CITY           SKY/WX    TMP DP  RH WIND       PRES   REMARKS
GRAND ISLAND   FAIR      23  17  78 W10       30.18R WCI  12
AURORA         FAIR      24  17  77 NW9       30.18R WCI  14
HASTINGS       FAIR      26  18  71 NW10      30.19R WCI  16
HEBRON         FAIR      26  18  74 NW6       30.22R WCI  19
HOLDREGE       FAIR      28  22  79 NW8       30.20R WCI  20
KEARNEY        FAIR      28  19  69 W10       30.20R WCI  19
YORK           FAIR      19  19 100 NW7       30.19R WCI  10
$$

NEZ011>018-030>034-042>045-231800-
NORTHEAST NEBRASKA

CITY           SKY/WX    TMP DP  RH WIND       PRES   REMARKS
NORFOLK        MIX PCPN  28  20  71 NW8       30.15R WCI  20
ALBION         FAIR      23  16  75 NW9       30.15R WCI  13
BLAIR          CLOUDY    23  20  89 NW14      30.16R WCI  10
COLUMBUS       CLOUDY    25  22  88 W7        30.19R FOG     WCI  17
FREMONT          N/A    N/A N/A N/A MISG        N/A
TEKAMAH        CLOUDY    23  23 100 NW12      30.19R WCI  12
WAYNE            N/A     22  21  96 NW9       30.16R WCI  12
$$

NEZ050>053-065>068-078-088>093-231800-
SOUTHEAST NEBRASKA

CITY           SKY/WX    TMP DP  RH WIND       PRES   REMARKS
LINCOLN        MIX PCPN  24  20  84 NW6       30.21R WCI  17
OMAHA EPPLEY   CLOUDY    24  19  81 N9        30.19R WCI  14
BEATRICE       CLOUDY    26  22  87 W7        30.20R WCI  18
FALLS CITY     CLOUDY    26  20  77 W10       30.20R WCI  16
NEBRASKA CITY  CLOUDY    24  23  96 NW8       30.19R WCI  15
PLATTSMOUTH    CLOUDY    24  21  89 W10       30.18R WCI  13
$$

NEZ044-045-051>053-067-231800-
OMAHA AREA

CITY           SKY/WX    TMP DP  RH WIND       PRES   REMARKS
OMAHA EPPLEY   CLOUDY    24  19  81 N9        30.19R WCI  14
BLAIR          CLOUDY    23  20  89 NW14      30.16R WCI  10
FREMONT          N/A    N/A N/A N/A MISG        N/A
MILLARD        CLOUDY    25  20  82 NW7       30.19R WCI  17
OFFUTT AFB     CLOUDY    24  20  82 NW10      30.18R WCI  14
PLATTSMOUTH    CLOUDY    24  21  89 W10       30.18R WCI  13
WAHOO          CLOUDY    24  20  85 NW7       30.19R WCI  16
$$




USA.gov is the U.S. government's official web portal to all federal, state and local government web resources and services.